Location: Norton
(51.3000°N, 0.8167°E)
Time: 12:48:36
(UTC+00:00)

CZ-4 R/B - Pass Details

Date: 03 March 2021
Orbit: 532 x 597 km, 97.7° (Epoch: 17 April)

Event Time Altitude Azimuth Distance (km) Brightness Sun altitude
Rises 18:03:42 0° 154° (SSE) 2,672 4.6 -4.3°
Reaches altitude 10° 18:05:48 10° 150° (SSE) 1,791 3.7 -4.7°
Maximum altitude 18:09:36 58° 72° (ENE) 637 1.4 -5.2°
Drops below altitude 10° 18:13:29 10° 353° (N) 1,831 4.0 -5.9°
Sets 18:15:39 0° 350° (N) 2,740 5.0 -6.2°
